Radiation Dose at Monitoring Post of Fukushima Daini Nuclear Power Station
Date,Time,MP-1(microSv/h),MP-2(microSv/h),MP-3(microSv/h),MP-4(microSv/h),MP-5(microSv/h),MP-6(microSv/h),MP-7(microSv/h),Wind Direction,Wind Velocity(m/s),Rain
2022/12/18,00:00,0.158,0.144,0.220,0.216,0.216,0.127,0.082,west-southwest,4.3,Yes
2022/12/18,00:10,0.156,0.142,0.220,0.215,0.217,0.125,0.082,west-southwest,3.9,Yes
2022/12/18,00:20,0.156,0.141,0.219,0.214,0.214,0.126,0.082,west-southwest,3.9,Yes
2022/12/18,00:30,0.155,0.141,0.217,0.214,0.214,0.126,0.080,west-southwest,3.8,Yes
2022/12/18,00:40,0.155,0.141,0.218,0.214,0.214,0.125,0.081,west,4.6,Yes
2022/12/18,00:50,0.156,0.141,0.218,0.213,0.214,0.125,0.081,west,5.4,Yes
2022/12/18,01:00,0.156,0.140,0.218,0.214,0.215,0.125,0.080,west,4.7,Yes
2022/12/18,01:10,0.156,0.141,0.217,0.213,0.214,0.125,0.080,west,6.6,Yes
2022/12/18,01:20,0.155,0.140,0.217,0.212,0.213,0.124,0.079,west,7.4,Yes
2022/12/18,01:30,0.155,0.139,0.216,0.213,0.214,0.124,0.079,west,7.0,Yes
2022/12/18,01:40,0.155,0.140,0.217,0.213,0.213,0.124,0.079,west,6.3,Yes
2022/12/18,01:50,0.154,0.139,0.217,0.213,0.214,0.123,0.079,west-northwest,6.2,Yes
2022/12/18,02:00,0.154,0.139,0.215,0.213,0.213,0.123,0.078,west-northwest,6.5,Yes
2022/12/18,02:10,0.154,0.139,0.216,0.212,0.213,0.123,0.078,west-northwest,5.8,No
2022/12/18,02:20,0.153,0.139,0.215,0.212,0.213,0.123,0.078,west-northwest,4.9,No
2022/12/18,02:30,0.153,0.138,0.216,0.213,0.212,0.124,0.078,west-northwest,4.9,No
2022/12/18,02:40,0.153,0.139,0.216,0.212,0.212,0.123,0.077,west-northwest,4.4,No
2022/12/18,02:50,0.154,0.138,0.214,0.212,0.212,0.122,0.077,north-northwest,1.8,No
2022/12/18,03:00,0.154,0.138,0.215,0.211,0.211,0.122,0.078,northwest,2.1,No
2022/12/18,03:10,0.153,0.137,0.215,0.211,0.211,0.123,0.078,west-northwest,1.9,No
2022/12/18,03:20,0.153,0.138,0.214,0.211,0.211,0.122,0.078,northwest,2.4,No
2022/12/18,03:30,0.152,0.140,0.213,0.211,0.212,0.122,0.078,north-northwest,2.3,No
2022/12/18,03:40,0.153,0.138,0.214,0.211,0.212,0.122,0.077,northwest,2.8,No
2022/12/18,03:50,0.153,0.138,0.214,0.211,0.211,0.121,0.077,northwest,3.3,No
2022/12/18,04:00,0.154,0.138,0.214,0.211,0.213,0.122,0.077,north-northwest,3.8,No
2022/12/18,04:10,0.153,0.138,0.215,0.211,0.212,0.122,0.078,north-northwest,4.2,No
2022/12/18,04:20,0.153,0.139,0.217,0.212,0.213,0.121,0.076,northwest,4.7,No
2022/12/18,04:30,0.153,0.138,0.215,0.211,0.211,0.121,0.077,northwest,5.1,No
2022/12/18,04:40,0.154,0.138,0.215,0.211,0.213,0.121,0.077,north-northwest,4.6,No
2022/12/18,04:50,0.153,0.137,0.213,0.212,0.212,0.120,0.077,north-northwest,3.7,No
2022/12/18,05:00,0.152,0.138,0.214,0.211,0.211,0.122,0.078,north-northwest,3.6,No
2022/12/18,05:10,0.153,0.137,0.215,0.211,0.211,0.121,0.078,north-northwest,3.5,No
2022/12/18,05:20,0.154,0.138,0.217,0.211,0.212,0.121,0.077,north-northwest,3.1,No
2022/12/18,05:30,0.154,0.138,0.214,0.211,0.212,0.121,0.077,north-northwest,2.9,No
2022/12/18,05:40,0.153,0.137,0.214,0.211,0.212,0.121,0.078,north,2.7,No
2022/12/18,05:50,0.153,0.138,0.214,0.211,0.212,0.122,0.077,north-northwest,3.1,No
2022/12/18,06:00,0.154,0.138,0.214,0.210,0.212,0.122,0.078,north-northwest,2.8,No
2022/12/18,06:10,0.153,0.138,0.215,0.211,0.211,0.122,0.077,north,3.5,No
2022/12/18,06:20,0.153,0.138,0.215,0.211,0.212,0.122,0.077,north,2.6,No
2022/12/18,06:30,0.153,0.139,0.216,0.212,0.212,0.121,0.077,north,2.6,No
2022/12/18,06:40,0.154,0.138,0.215,0.211,0.211,0.121,0.076,north-northwest,2.1,No
2022/12/18,06:50,0.154,0.137,0.215,0.211,0.212,0.121,0.078,north,1.8,No
2022/12/18,07:00,0.154,0.137,0.214,0.212,0.212,0.121,0.077,north,1.4,No
2022/12/18,07:10,0.153,0.138,0.214,0.212,0.211,0.122,0.078,northwest,1.8,No
2022/12/18,07:20,0.153,0.139,0.215,0.211,0.212,0.121,0.078,north-northeast,2.0,No
2022/12/18,07:30,0.153,0.137,0.215,0.211,0.212,0.121,0.076,northwest,1.1,No
2022/12/18,07:40,0.153,0.138,0.214,0.210,0.212,0.121,0.077,northeast,1.4,No
2022/12/18,07:50,0.153,0.137,0.214,0.209,0.211,0.122,0.078,west-northwest,2.9,No
2022/12/18,08:00,0.152,0.138,0.214,0.210,0.211,0.121,0.076,west-northwest,6.3,No
2022/12/18,08:10,0.153,0.139,0.215,0.212,0.212,0.122,0.076,west-northwest,6.0,No
2022/12/18,08:20,0.154,0.138,0.214,0.211,0.212,0.122,0.077,west-northwest,7.1,No
2022/12/18,08:30,0.153,0.139,0.214,0.211,0.212,0.122,0.076,west-northwest,6.6,No
2022/12/18,08:40,0.153,0.138,0.215,0.211,0.212,0.122,0.077,west-northwest,6.1,No
2022/12/18,08:50,0.153,0.138,0.215,0.210,0.212,0.122,0.076,west-northwest,6.4,No
2022/12/18,09:00,0.155,0.138,0.215,0.211,0.212,0.122,0.078,west-northwest,7.7,No
2022/12/18,09:10,0.154,0.138,0.214,0.210,0.211,0.121,0.077,west-northwest,7.5,No
2022/12/18,09:20,0.154,0.138,0.215,0.210,0.212,0.122,0.077,west-northwest,8.2,No
2022/12/18,09:30,0.153,0.139,0.216,0.211,0.212,0.121,0.078,west,12.8,No
2022/12/18,09:40,0.154,0.138,0.216,0.209,0.212,0.123,0.077,west-northwest,13.1,No
2022/12/18,09:50,0.154,0.137,0.216,0.212,0.212,0.122,0.078,west,15.6,No
2022/12/18,10:00,0.154,0.138,0.215,0.211,0.212,0.123,0.076,west,11.4,No
2022/12/18,10:10,0.154,0.139,0.216,0.211,0.212,0.122,0.077,west,14.2,No
2022/12/18,10:20,0.154,0.138,0.214,0.211,0.212,0.122,0.078,west,10.3,No
2022/12/18,10:30,0.154,0.139,0.214,0.213,0.213,0.122,0.078,west,13.3,No
2022/12/18,10:40,0.154,0.138,0.215,0.211,0.211,0.123,0.078,west-northwest,14.0,No
2022/12/18,10:50,0.155,0.138,0.215,0.211,0.212,0.122,0.078,west-northwest,11.1,No
2022/12/18,11:00,0.154,0.139,0.215,0.213,0.213,0.122,0.078,west,11.8,No
2022/12/18,11:10,0.154,0.139,0.215,0.211,0.212,0.121,0.078,west,11.7,No
2022/12/18,11:20,0.154,0.138,0.216,0.210,0.213,0.122,0.077,west-northwest,14.0,No
2022/12/18,11:30,0.153,0.139,0.214,0.211,0.212,0.122,0.078,west-northwest,13.1,No
2022/12/18,11:40,0.154,0.138,0.215,0.213,0.212,0.123,0.078,west-northwest,10.3,No
2022/12/18,11:50,0.153,0.139,0.216,0.211,0.213,0.122,0.077,west-northwest,10.9,No
2022/12/18,12:00,0.154,0.139,0.215,0.211,0.211,0.123,0.078,west-northwest,10.3,No
2022/12/18,12:10,0.153,0.139,0.215,0.212,0.214,0.122,0.078,west,9.2,No
2022/12/18,12:20,0.153,0.139,0.216,0.211,0.212,0.123,0.077,west,8.1,No
2022/12/18,12:30,0.154,0.138,0.216,0.211,0.212,0.123,0.078,west-northwest,5.0,No
2022/12/18,12:40,0.153,0.139,0.217,0.212,0.213,0.122,0.078,west,4.4,No
2022/12/18,12:50,0.154,0.138,0.215,0.212,0.212,0.121,0.078,west,7.9,No
2022/12/18,13:00,0.154,0.138,0.215,0.212,0.212,0.123,0.077,west,7.7,No
2022/12/18,13:10,0.154,0.138,0.215,0.211,0.212,0.122,0.077,west,7.7,No
2022/12/18,13:20,0.154,0.137,0.216,0.211,0.213,0.123,0.078,west-northwest,9.5,Yes
2022/12/18,13:30,0.154,0.138,0.216,0.211,0.213,0.123,0.077,west,13.4,No
2022/12/18,13:40,0.154,0.138,0.215,0.212,0.212,0.123,0.078,west,8.4,No
2022/12/18,13:50,0.153,0.139,0.215,0.211,0.212,0.122,0.077,west-northwest,7.8,No
2022/12/18,14:00,0.153,0.138,0.216,0.212,0.213,0.122,0.077,west-northwest,7.3,No
2022/12/18,14:10,0.154,0.139,0.216,0.211,0.212,0.122,0.077,west-northwest,7.7,No
2022/12/18,14:20,0.154,0.139,0.215,0.212,0.211,0.122,0.077,west-northwest,8.1,No
2022/12/18,14:30,0.154,0.138,0.215,0.212,0.214,0.122,0.077,west-northwest,8.5,No
2022/12/18,14:40,0.154,0.139,0.216,0.211,0.212,0.121,0.077,west-northwest,9.0,No
2022/12/18,14:50,0.154,0.139,0.216,0.212,0.212,0.121,0.078,northwest,9.5,Yes
2022/12/18,15:00,0.155,0.138,0.216,0.213,0.212,0.122,0.077,north-northwest,12.8,Yes
2022/12/18,15:10,0.156,0.139,0.216,0.213,0.212,0.122,0.078,northwest,12.3,Yes
2022/12/18,15:20,0.155,0.140,0.217,0.213,0.214,0.123,0.078,northwest,10.1,Yes
2022/12/18,15:30,0.156,0.141,0.218,0.213,0.214,0.124,0.079,northwest,10.3,Yes
2022/12/18,15:40,0.155,0.140,0.218,0.213,0.212,0.124,0.079,northwest,8.2,No
2022/12/18,15:50,0.156,0.140,0.218,0.214,0.213,0.124,0.079,northwest,7.9,No
2022/12/18,16:00,0.156,0.139,0.218,0.214,0.213,0.124,0.078,northwest,7.1,No
2022/12/18,16:10,0.155,0.139,0.217,0.214,0.213,0.123,0.078,northwest,5.0,No
2022/12/18,16:20,0.154,0.140,0.217,0.213,0.214,0.123,0.078,northwest,5.5,No
2022/12/18,16:30,0.154,0.139,0.217,0.213,0.213,0.123,0.079,northwest,5.3,No
2022/12/18,16:40,0.155,0.138,0.217,0.213,0.213,0.123,0.079,northwest,5.2,No
2022/12/18,16:50,0.155,0.139,0.217,0.213,0.212,0.123,0.078,northwest,5.6,No
2022/12/18,17:00,0.154,0.139,0.217,0.213,0.212,0.122,0.078,northwest,5.8,No
2022/12/18,17:10,0.155,0.139,0.216,0.213,0.213,0.122,0.078,northwest,5.6,No
2022/12/18,17:20,0.155,0.138,0.217,0.212,0.214,0.122,0.078,northwest,5.2,No
2022/12/18,17:30,0.155,0.140,0.216,0.213,0.214,0.123,0.078,northwest,3.4,No
2022/12/18,17:40,0.154,0.138,0.217,0.213,0.212,0.124,0.078,north-northwest,3.0,No
2022/12/18,17:50,0.155,0.139,0.216,0.213,0.213,0.122,0.078,north,3.1,No
2022/12/18,18:00,0.155,0.138,0.216,0.212,0.213,0.123,0.078,north-northwest,3.1,No
2022/12/18,18:10,0.154,0.139,0.216,0.213,0.212,0.122,0.078,northwest,2.6,No
2022/12/18,18:20,0.154,0.138,0.216,0.212,0.212,0.122,0.078,north-northwest,2.6,No
2022/12/18,18:30,0.155,0.138,0.216,0.211,0.213,0.121,0.077,northwest,2.6,No
2022/12/18,18:40,0.154,0.138,0.215,0.212,0.213,0.122,0.078,northwest,2.1,No
2022/12/18,18:50,0.155,0.140,0.215,0.211,0.213,0.122,0.079,west-northwest,2.8,No
2022/12/18,19:00,0.153,0.139,0.216,0.213,0.212,0.122,0.078,west-northwest,3.4,No
2022/12/18,19:10,0.155,0.139,0.215,0.211,0.213,0.123,0.077,west-northwest,3.3,No
2022/12/18,19:20,0.154,0.139,0.216,0.213,0.212,0.122,0.078,west-northwest,4.7,No
2022/12/18,19:30,0.154,0.139,0.216,0.211,0.213,0.122,0.078,northwest,4.1,No
2022/12/18,19:40,0.154,0.139,0.216,0.213,0.213,0.122,0.078,northwest,3.9,No
2022/12/18,19:50,0.154,0.139,0.216,0.212,0.213,0.122,0.078,northwest,4.8,No
2022/12/18,20:00,0.155,0.138,0.216,0.213,0.213,0.122,0.078,north-northwest,5.3,No
2022/12/18,20:10,0.154,0.139,0.215,0.212,0.213,0.122,0.079,north-northwest,5.5,No
2022/12/18,20:20,0.155,0.139,0.217,0.213,0.212,0.123,0.079,north-northwest,6.1,No
2022/12/18,20:30,0.154,0.139,0.217,0.213,0.213,0.122,0.078,north-northwest,6.5,No
2022/12/18,20:40,0.154,0.139,0.215,0.212,0.212,0.123,0.078,north-northwest,7.3,No
2022/12/18,20:50,0.154,0.139,0.216,0.212,0.212,0.122,0.078,north-northwest,7.7,No
2022/12/18,21:00,0.154,0.139,0.217,0.213,0.213,0.122,0.078,north-northwest,7.6,No
2022/12/18,21:10,0.156,0.139,0.217,0.213,0.212,0.122,0.078,north-northwest,6.7,No
2022/12/18,21:20,0.154,0.138,0.216,0.212,0.213,0.122,0.078,north-northwest,7.6,Yes
2022/12/18,21:30,0.154,0.138,0.216,0.212,0.213,0.123,0.079,north-northwest,7.3,Yes
2022/12/18,21:40,0.155,0.140,0.216,0.212,0.214,0.123,0.078,north-northwest,7.0,Yes
2022/12/18,21:50,0.155,0.139,0.217,0.212,0.211,0.122,0.078,north-northwest,7.7,Yes
2022/12/18,22:00,0.155,0.140,0.216,0.213,0.213,0.123,0.079,north-northwest,7.4,Yes
2022/12/18,22:10,0.156,0.140,0.219,0.214,0.213,0.124,0.080,north-northwest,6.8,Yes
2022/12/18,22:20,0.157,0.141,0.217,0.213,0.214,0.124,0.079,north-northwest,6.1,Yes
2022/12/18,22:30,0.156,0.142,0.218,0.215,0.214,0.125,0.080,northwest,4.1,Yes
2022/12/18,22:40,0.156,0.141,0.218,0.214,0.213,0.124,0.080,northwest,3.7,Yes
2022/12/18,22:50,0.156,0.141,0.217,0.214,0.214,0.123,0.080,northwest,2.9,Yes
2022/12/18,23:00,0.156,0.140,0.217,0.214,0.214,0.124,0.080,northwest,3.8,No
2022/12/18,23:10,0.156,0.140,0.216,0.212,0.214,0.123,0.079,northwest,4.4,No
2022/12/18,23:20,0.155,0.140,0.217,0.212,0.213,0.122,0.079,northwest,3.9,No
2022/12/18,23:30,0.156,0.140,0.216,0.212,0.213,0.123,0.079,northwest,2.9,No
2022/12/18,23:40,0.155,0.139,0.216,0.213,0.212,0.123,0.078,northwest,2.5,No
2022/12/18,23:50,0.155,0.140,0.216,0.212,0.212,0.123,0.079,west-northwest,2.0,No
